Orbital Elements at Epoch 2459000.5 (2020-May-31.0) TDB
Reference: JPL 19 (heliocentric ecliptic J2000)
Element | Value | Uncertainty (1-sigma) | Units |
e | .1516082430004235 | 4.8232e-08 | |
a | 3.031558880694666 | 2.233e-08 | au |
q | 2.571949565240217 | 1.424e-07 | au |
i | .469482851843533 | 4.4041e-06 | deg |
node | 240.1665744237678 | 0.00070661 | deg |
peri | 336.676157702173 | 0.00070682 | deg |
M | 114.8979946658678 | 2.0193e-05 | deg |
tp | 2458385.170995533146 (2018-Sep-23.67099553) | 0.00010468 | TDB |
period | 1927.957422166157 5.28 | 2.1301e-05 5.832e-08 | d yr |
n | .1867261153493327 | 2.0631e-09 | deg/d |
Q | 3.491168196149115 | 2.5715e-08 | au |
|
| | Orbit Determination Parameters
Additional Information
|